Tracking 29033 objects as of 22-Jun-2024
HD Live streaming from Space Station
objects crossing your sky now

STARLINK-6252

Track STARLINK-6252 now!
10-day predictions
STARLINK-6252 is classified as:


NORAD ID: 56555
Int'l Code: 2023-065BE
Perigee: 565.3 km
Apogee: 567.2 km
Inclination: 43.0 °
Period: 95.8 minutes
Semi major axis: 6937 km
RCS: Unknown
Launch date: May 14, 2023
Source: United States (US)
Launch site: AIR FORCE EASTERN TEST RANGE (AFETR)
Your satellite tracking list
Your tracking list is empty




NASA's NSSDC Master Catalog

Two Line Element Set (TLE):
1 56555U 23065BE  24173.68671469  .00000397  00000-0  44481-4 0  9990
2 56555  43.0051  24.3659 0001342 275.1408  84.9281 15.02534877 62313
Source of the keplerian elements: AFSPC